PEGASUS R/B

Satellite information

Favourite Embed

Satellite Type and Status

ROCKET BODYIN ORBIT

Key statistics

Satellite PEGASUS R/B at a glance.

Uptime

10172

Days in orbit

Revolutions

≈ 14.3

Per day

Orbit

LEO

Low Earth Orbit

Inclination

70.0

Latest

Satellite identification and parameters

Extended collection of information and parameters for PEGASUS R/B.

Object identification

Identified? True

Debris? False

Object name: PEGASUS R/B

International designator: 1997-047B

Object number (NORAD): 24921

Object ID (CCSDS): 24921

Country: UNITED STATES OF AMERICA (US)

Current information (Y/N): Y

RCS size: LARGE

Orbital parameters

Period: 100.952 minutes

Inclination: 69.9714 deg

SMA: 7181.858 km

Apoapsis: 818.498 km

Periapsis: 788.947 km

RAAN: 114.8428 deg

Eccentricy: 0.0020574

Argument of periapsis: 2.8516 deg

Mean anomaly: 159.2548 deg

Mean motion: 14.26420547 rev/day

Mean motion (dot): 0.00000082 rev/day2

B* drag term: 0.000057685 1/REarth

Two-line elements (TLE)

Creation date: July 4, 2025, 6:39 p.m.

Reference frame: TEME

Reference center: EARTH

Epoch: July 4, 2025, 6:41 a.m. UTC

TLE line 0: 0 PEGASUS R/B

TLE line 1: 1 24921U 97047B 25185.27898773 .00000082 00000-0 57685-4 0 9992

TLE line 2: 2 24921 69.9714 114.8428 0020574 2.8516 159.2548 14.26420547448661

Live tracking on map

Real-time ground track for satellite PEGASUS R/B.

In-orbit conjunctions

A list of the most updated potential collisions computed for object PEGASUS R/B.

Target Orbit TCA Probability of collision Miss distance Type
DMSP 5D-2 F13 DEB SSO 2024-10-18 04:25:53 0.0003077679 163.0 (m) DEBRIS
NOAA 16 DEB SSO 2024-08-02 14:06:01 0.0001431379 571.0 (m) DEBRIS

Associated space launch

PEGASUS R/B was lifted into orbit during the mission ‘Pegasus XL | Fast On-orbit Rapid Recording of Transient Events (FORTE)’, on board a Pegasus XL space rocket.

The launch took place on Aug. 29, 1997, 3:02 p.m. from Space Launch Complex 10E.

For more information about the launch, click the button.

Launch to space Pegasus XL | Fast On-orbit Rapid Recording of Transient Events (FORTE)
Pegasus XL | Fast On-orbit Rapid Recording of Transient Events (FORTE)

Agency: N/A

Status: Launch Successful

Launch date: Aug. 29, 1997, 3:02 p.m. UTC

Rocket: Pegasus XL

Launch pad: Space Launch Complex 10E

Location: Vandenberg SFB, CA, USA

...

Latest news about this satellite

There are no fresh news available about this satellite. Check back as we update our databases every day.


Newsletter sign-up

Weekly statistics, charts and insights to help you stay on top of the space industry.